Oakes, ND

4:06 PM CST on December 05, 2019 (GMT -0600)
Oakes

Weather History for K2D5 - November, 2019

Change the Weather History Date:

Tuesday, November 19, 2019

  Actual Average (WUND) Record (WUND)
Temperature  
Mean Temperature 34 °F -  
Max Temperature 39 °F - - (-1)
Min Temperature 30 °F - - (-1)
Degree Days  
Heating Degree Days 30    
Moisture  
Dew Point 32 °F    
Average Humidity 88    
Maximum Humidity 100    
Minimum Humidity 75    
Precipitation  
Precipitation 0.00 in - - ()
Sea Level Pressure  
Sea Level Pressure 29.89 in    
Wind  
Wind Speed 6 mph (NNE)    
Max Wind Speed 10 mph    
Max Gust Speed -    
Visibility 10 miles    
Events      
Averages and records for this station are not official NWS values.
T = Trace of Precipitation, MM = Missing Value Source: NWS Daily Summary

Daily Weather History Graph

Daily Weather History Graph

Search for Another Location

Airport or City:

Astronomy

Nov. 19, 2019 Rise Set
Actual Time 7:38 AM CST 4:56 PM CST
Civil Twilight 7:05 AM CST 5:29 PM CST
Nautical Twilight 6:28 AM CST 6:05 PM CST
Astronomical Twilight 5:53 AM CST 6:41 PM CST
Moon 11:57 PM CST (11/19) 1:47 PM CST (11/19)
Length of Visible Light 10h 23m
Length of Day
9h 17m
Waning Gibbous, 51% of the Moon is Illuminated
Nov 19
Waning Gibbous
Nov 19
Last Quarter
Nov 26
New
Dec 4
First Quarter
Dec 11
Full

Hourly Weather History & Observations

Time (CST) Temp. Windchill Dew Point Humidity Pressure Visibility Wind Dir Wind Speed Gust Speed Precip Events Conditions
11:55 AM - - - N/A% - 10.0 mi North - - N/A   Overcast
12:15 PM 39.2 °F 32.5 °F 35.6 °F 87% 29.86 in 10.0 mi NW 10.4 mph - N/A   Unknown
12:35 PM 39.2 °F 33.0 °F 35.6 °F 87% 29.86 in 10.0 mi NW 9.2 mph - N/A   Unknown
1:15 PM 39.2 °F 34.2 °F 35.6 °F 87% 29.85 in 10.0 mi NW 6.9 mph - N/A   Overcast
1:35 PM 39.2 °F 33.0 °F 33.8 °F 81% 29.85 in 10.0 mi NW 9.2 mph - N/A   Overcast
1:55 PM 39.2 °F 34.2 °F 33.8 °F 81% 29.85 in 10.0 mi NNW 6.9 mph - N/A   Overcast
2:15 PM 39.2 °F 33.0 °F 33.8 °F 81% 29.84 in 10.0 mi NW 9.2 mph - N/A   Overcast
2:35 PM 39.2 °F 35.9 °F 32.0 °F 75% 29.85 in 10.0 mi NNW 4.6 mph - N/A   Overcast
2:55 PM 39.2 °F 33.6 °F 32.0 °F 75% 29.84 in 10.0 mi North 8.1 mph - N/A   Overcast
3:15 PM 39.2 °F 34.2 °F 32.0 °F 75% 29.84 in 10.0 mi North 6.9 mph - N/A   Overcast
3:35 PM 39.2 °F 34.2 °F 32.0 °F 75% 29.85 in 10.0 mi North 6.9 mph - N/A   Overcast
3:55 PM 39.2 °F 35.9 °F 32.0 °F 75% 29.87 in 10.0 mi WNW 4.6 mph - N/A   Overcast
4:15 PM 37.4 °F 33.8 °F 32.0 °F 81% 29.87 in 10.0 mi NW 4.6 mph - N/A   Overcast
4:35 PM 37.4 °F 32.8 °F 32.0 °F 81% 29.87 in 10.0 mi NNE 5.8 mph - N/A   Overcast
4:55 PM 37.4 °F 33.8 °F 30.2 °F 75% 29.88 in 10.0 mi West 4.6 mph - N/A   Overcast
5:15 PM 35.6 °F 31.7 °F 30.2 °F 81% 29.87 in 10.0 mi NNE 4.6 mph - N/A   Overcast
5:35 PM 37.4 °F - 30.2 °F 75% 29.87 in 10.0 mi Calm Calm - N/A   Overcast
5:55 PM 35.6 °F - 30.2 °F 81% 29.88 in 10.0 mi Calm Calm - N/A   Overcast
6:15 PM 33.8 °F - 30.2 °F 87% 29.89 in 10.0 mi Calm Calm - N/A   Overcast
6:35 PM 33.8 °F 28.6 °F 30.2 °F 87% 29.89 in 10.0 mi NNE 5.8 mph - N/A   Overcast
6:55 PM 33.8 °F 28.6 °F 30.2 °F 87% 29.89 in 10.0 mi ENE 5.8 mph - N/A   Overcast
7:15 PM 32.0 °F 27.5 °F 30.2 °F 93% 29.90 in 10.0 mi NNE 4.6 mph - N/A   Overcast
7:35 PM 32.0 °F - 30.2 °F 93% 29.90 in 10.0 mi Calm Calm - N/A   Overcast
7:55 PM 32.0 °F - 30.2 °F 93% 29.90 in 10.0 mi Calm Calm - N/A   Overcast
8:15 PM 33.8 °F 29.6 °F 30.2 °F 87% 29.91 in 10.0 mi NNE 4.6 mph - N/A   Overcast
8:35 PM 32.0 °F - 32.0 °F 100% 29.92 in 10.0 mi Calm Calm - N/A   Overcast
8:55 PM 32.0 °F 28.7 °F 32.0 °F 100% 29.92 in 10.0 mi ESE 3.5 mph - N/A   Overcast
9:15 PM 32.0 °F 28.7 °F 30.2 °F 93% 29.92 in 10.0 mi East 3.5 mph - N/A   Overcast
9:35 PM 30.2 °F 24.3 °F 30.2 °F 100% 29.92 in 10.0 mi ENE 5.8 mph - N/A   Overcast
9:55 PM 30.2 °F 25.4 °F 30.2 °F 100% 29.93 in 10.0 mi East 4.6 mph - N/A   Overcast
10:15 PM 30.2 °F - 30.2 °F 100% 29.93 in 10.0 mi Calm Calm - N/A   Overcast
10:35 PM 32.0 °F 26.4 °F 32.0 °F 100% 29.92 in 10.0 mi East 5.8 mph - N/A   Overcast
10:55 PM 32.0 °F 28.7 °F 32.0 °F 100% 29.93 in 10.0 mi East 3.5 mph - N/A   Overcast
11:15 PM 32.0 °F - 32.0 °F 100% 29.94 in 10.0 mi Calm Calm - N/A   Overcast
11:35 PM 32.0 °F 28.7 °F 32.0 °F 100% 29.93 in 10.0 mi ESE 3.5 mph - N/A   Overcast
11:55 PM 32.0 °F 27.5 °F 32.0 °F 100% 29.93 in 10.0 mi ESE 4.6 mph - N/A   Overcast